STARLINK-34401

Last updated on Sat Jul 19 2025 00:02:08 GMT+0000 (Coordinated Universal Time)

1 64757U 25147C 25199.58335648 -.01456145 00000+0 -97971-2 0 9998 2 64757 53.1590 256.8870 0000696 74.9393 324.2014 15.77334811 2701
UTC large
Height (km)
Speed (km/s)
/
Latitude / Longitude
Inclination (degrees)
Orbital Period (minutes)
Azimuth
Elevation
Range (km)
Doppler Factor

Next 0 passes for location: London (51.5072 / 0.1276)

Sorry there are no passes over London.